Вернуться в каталог

CZ-6A DEB

АктивенPO
NORAD 54939·DEBRIS·🇨🇳 China

Запущен Nov 11, 2022 с Taiyuan Satellite Launch Center

Loading…

Ближайшие Пролёты (ближайшие 24 часа)

TLE

СвежийSource: Space-Track

Эпоха: Sep 14, 2026, 05:08 UTC

1 54939U 22151SC  26257.21429854  .00002921  00000-0  90724-3 0  9997
2 54939  99.0595 355.3101 0068880 201.8826 157.9415 14.40536161200267

Отслеживайте CZ-6A DEB в реальном времени с AllMySat

Download on the App Store